Regional Weather Roundup
Issued by NWS

Home | Current Version | Previous Version | Text Only | Print | Product List | Glossary Off
Versions: 1 2 3 4 5 6 7 8 9 10 11 12 13 14 15 16 17 18 19 20 21 22 23 24 25 26 27 28 29 30 31 32 33 34 35 36 37 38 39 40 41 42 43 44 45 46 47 48 49 50

000
ASUS43 KFSD 260610
RWRSD

WEATHER ROUNDUP FOR SOUTH DAKOTA
NATIONAL WEATHER SERVICE SIOUX FALLS SD
100 AM CDT THU MAY 26 2016

NOTE: "FAIR" INDICATES FEW OR NO CLOUDS BELOW 12,000 FEET WITH NO
SIGNIFICANT WEATHER AND/OR OBSTRUCTIONS TO VISIBILITY.


SDZ001>005-009-010-012>017-260700-
NORTHWEST AND NORTH CENTRAL SOUTH DAKOTA

CITY           SKY/WX    TMP DP  RH WIND       PRES   REMARKS
BUFFALO          N/A     48  42  80 W6        29.81R
FAITH            N/A     53  40  61 SW3       29.85S
MOBRIDGE       CLEAR     50  46  86 CALM      29.80S
$$

SDZ012>016-024>037-041>051-057-063-072>074-260700-
SOUTHWEST AND SOUTH CENTRAL SOUTH DAKOTA

CITY           SKY/WX    TMP DP  RH WIND       PRES   REMARKS
RAPID CTY ARPT CLOUDY    51  46  83 W5        29.90R
PIERRE         CLEAR     54  48  80 CALM      29.85R
CUSTER         CLEAR     45  39  79 S5        29.97S
ELLSWORTH AFB  CLOUDY    48  47  96 W8        29.89R
PHILIP         CLEAR     51  48  89 CALM      29.87R
PINE RIDGE     CLOUDY    44  39  82 CALM      29.92R
WINNER         FAIR      58  51  78 CALM      29.87S
$$

SDZ004>011-016>023-039-040-260700-
NORTHEAST SOUTH DAKOTA

CITY           SKY/WX    TMP DP  RH WIND       PRES   REMARKS
ABERDEEN       CLEAR     55  50  83 W3        29.80R
WATERTOWN      CLEAR     60  52  74 SW13      29.80R
SISSETON         N/A     59  57  93 NW3       29.73F
$$

SDZ017-020-022-023-036>040-048>070-260700-
SOUTHEAST SOUTH DAKOTA

CITY           SKY/WX    TMP DP  RH WIND       PRES   REMARKS
SIOUX FALLS    CLOUDY    61  55  81 SE5       29.81R
HURON          CLEAR     58  52  80 W10       29.81S
CHAMBERLAIN    CLOUDY    57  55  92 W3        29.86R
MITCHELL       CLOUDY    61  58  90 W5        29.83S
YANKTON        CLOUDY    57  54  88 NW6       29.82R
$$

ABBREVIATIONS USED IN REMARKS
   TC - TEMPERATURE IN CELSIUS
  WCI - WIND CHILL INDEX
   HX - HEAT INDEX
  VSB - VISIBILITY




USA.gov is the U.S. government's official web portal to all federal, state and local government web resources and services.